Location: Cheching
(60.0667°N, 164.2167°W)
Time: 10:43:15
(UTC+00:00)

STRAND 1 - Visible Passes

Search period start: 17 January 2021 00:00
Search period end: 27 January 2021 00:00
Orbit: 768 x 781 km, 98.4° (Epoch: 16 January)

Date Brightness Start Highest point End Pass type
(mag) Time Alt. Az. Time Alt. Az. Time Alt. Az.
17 Jan ? 14:48:34 10° E 14:52:05 19° NE 14:55:35 10° N visible
17 Jan ? 16:25:25 10° SE 16:30:25 59° ENE 16:35:29 10° NNW visible
17 Jan ? 18:05:18 10° SSW 18:09:56 34° W 18:14:36 10° NNW visible
18 Jan ? 14:16:02 10° ENE 14:18:32 14° NE 14:21:03 10° N visible
18 Jan ? 15:51:50 10° ESE 15:56:32 38° ENE 16:01:15 10° N visible
18 Jan ? 17:30:36 10° S 17:35:38 56° W 17:40:41 10° NNW visible
19 Jan ? 13:44:19 10° NE 13:45:05 10° NNE 13:45:52 10° NNE visible
19 Jan ? 15:18:35 10° ESE 15:22:46 26° NE 15:26:57 10° N visible
19 Jan ? 16:56:20 10° SSE 17:01:27 90° ESE 17:06:38 10° NNW visible
19 Jan ? 18:37:27 10° SW 18:41:22 22° W 18:45:19 10° NW visible
20 Jan ? 14:45:42 10° E 14:49:08 18° NE 14:52:34 10° N visible
20 Jan ? 16:22:27 10° SE 16:27:26 57° ENE 16:32:28 10° NNW visible
20 Jan ? 18:02:14 10° SSW 18:06:55 35° W 18:11:38 10° NNW visible
21 Jan ? 14:13:11 10° ENE 14:15:35 13° NNE 14:18:00 10° N visible
21 Jan ? 15:48:54 10° ESE 15:53:33 37° ENE 15:58:14 10° N visible
21 Jan ? 17:27:34 10° S 17:32:37 58° WSW 17:37:42 10° NNW visible
22 Jan ? 13:41:42 10° NNE 13:42:09 10° NNE 13:42:36 10° NNE visible
22 Jan ? 15:15:41 10° ESE 15:19:48 25° NE 15:23:57 10° N visible
22 Jan ? 16:53:20 10° SSE 16:58:28 87° ENE 17:03:38 10° NNW visible
22 Jan ? 18:34:19 10° SW 18:38:20 23° W 18:42:23 10° NW visible
23 Jan ? 14:42:49 10° E 14:46:11 18° NE 14:49:33 10° N visible
23 Jan ? 16:19:28 10° SE 16:24:27 55° ENE 16:29:29 10° NNW visible
23 Jan ? 17:59:10 10° SSW 18:03:53 37° W 18:08:40 10° NNW visible
24 Jan ? 14:10:20 10° ENE 14:12:39 13° NNE 14:14:58 10° N visible
24 Jan ? 15:45:58 10° ESE 15:50:35 36° NE 15:55:15 10° N visible
24 Jan ? 17:24:32 10° S 17:29:36 61° WSW 17:34:43 10° NNW visible
25 Jan ? 15:12:46 10° E 15:16:50 24° NE 15:20:56 10° N visible
25 Jan ? 16:50:21 10° SSE 16:55:28 84° ENE 17:00:39 10° NNW visible
25 Jan ? 18:31:12 10° SW 18:35:18 24° W 18:39:26 10° NW visible
26 Jan?08:20:47SW08:20:47SW08:06:59NNEvisible
26 Jan ? 14:39:56 10° E 14:43:13 17° NE 14:46:31 10° N visible
26 Jan ? 16:16:31 10° SE 16:21:28 53° ENE 16:26:28 10° NNW visible
26 Jan ? 17:56:06 10° SSW 18:00:52 38° W 18:05:42 10° NNW visible
